Weather reports worldwide

Advertisment
Biarritz, France (7602): temperature & dewpoint: 05.12.2019 09:00:00 - 11.12.2019 09:00:00 (CET)Biarritz, France (7602): temperature 5cm: 05.12.2019 09:00:00 - 11.12.2019 09:00:00 (CET)Biarritz, France (7602): temperature -20cm & temperature -100cm: 05.12.2019 09:00:00 - 11.12.2019 09:00:00 (CET)Biarritz, France (7602): wind speed & gusts: 05.12.2019 09:00:00 - 11.12.2019 09:00:00 (CET)Biarritz, France (7602): wind direction: 05.12.2019 09:00:00 - 11.12.2019 09:00:00 (CET)Biarritz, France (7602): reduced air pressure: 05.12.2019 09:00:00 - 11.12.2019 09:00:00 (CET)Biarritz, France (7602): visibility: 05.12.2019 09:00:00 - 11.12.2019 09:00:00 (CET)Biarritz, France (7602): sunshine duration: 05.12.2019 09:00:00 - 11.12.2019 09:00:00 (CET)Biarritz, France (7602): precipitation: 05.12.2019 09:00:00 - 11.12.2019 09:00:00 (CET)
Date & Time tt [°C] td [°C] tt 5cm [°C] tt -20cm [°C] tt -100cm [°C] ff [km/h] ff [kn] fx [km/h] fx [kn] dd ppp [hPa] vv [km] sd [min] rr [mm]
11.12.2019 09:00:00 11,3 10,4 10,6 10,1 12,2 27 14 54 29 NW 1019,9 8 0 1,0
11.12.2019 08:00:00 13,6 11,6 11,6 10,0 12,2 25 13 44 24 W 1018,6 32 0 0,0
11.12.2019 07:00:00 12,4 7,5 9,2 10,1 12,2 16 9 28 15 W 1018,2 42 0 0,0
11.12.2019 06:00:00 11,0 6,1 8,8 10,1 12,2 6 3 13 7 SSW 1017,2 43 0 0,0
11.12.2019 05:00:00 11,5 4,2 9,0 10,1 12,2 9 5 14 8 WNW 1017,4 58 0 0,0
11.12.2019 04:00:00 9,6 5,6 8,7 10,1 12,2 9 5 18 10 SSE 1017,8 60 0 0,0
11.12.2019 03:00:00 9,3 6,2 7,6 10,1 12,2 6 3 11 6 SE 1018,8 49 0 0,0
11.12.2019 02:00:00 9,0 5,7 7,8 10,1 12,2 8 5 12 7 SSE 1019,7 52 0 0,0
11.12.2019 01:00:00 11,1 4,1 8,9 10,1 12,3 8 4 12 6 SSE 1020,2 54 0 0,0
11.12.2019 00:00:00 9,6 5,4 8,0 10,2 12,2 8 5 16 9 SSE 1020,9 43 0 0,0
10.12.2019 23:00:00 8,9 6,5 4,0 10,3 12,2 8 4 11 6 S 1021,0 36 0 0,0
10.12.2019 22:00:00 8,1 5,4 4,2 10,3 12,2 5 3 12 6 S 1021,8 28 0 0,0
10.12.2019 21:00:00 8,8 5,9 5,5 10,4 12,3 10 5 17 9 SSE 1022,2 27 0 0,0
10.12.2019 20:00:00 8,9 5,6 5,5 10,5 12,2 5 3 8 5 SE 1022,9 31 0 0,0
10.12.2019 19:00:00 8,8 5,7 5,7 10,5 12,2 3 2 14 7 E 1023,0 30 0 0,0
10.12.2019 18:00:00 9,0 5,7 7,5 10,5 12,2 11 6 16 9 E 1023,3 38 0 0,0
10.12.2019 17:00:00 11,0 5,9 9,7 10,4 12,2 9 5 16 9 E 1023,9 43 4 0,0
10.12.2019 16:00:00 13,6 6,7 13,4 10,3 12,2 8 4 18 10 E 1024,1 20 41 0,0
10.12.2019 15:00:00 14,5 5,8 16,1 10,2 12,2 11 6 26 14 ESE 1024,8 19 60 0,0
10.12.2019 14:00:00 14,2 5,8 15,6 10,1 12,2 11 6 24 13 SE 1025,9 20 60 0,0
10.12.2019 13:00:00 13,6 6,0 15,6 10,0 12,2 13 7 24 13 SE 1027,0 20 60 0,0
10.12.2019 12:00:00 13,1 7,5 15,7 10,0 12,2 8 4 16 9 SSE 1028,6 20 60 0,0
10.12.2019 11:00:00 11,8 8,8 12,3 10,0 12,2 7 4 13 7 SE 1029,7 16 60 0,0
10.12.2019 10:00:00 9,1 7,9 5,7 10,1 12,2 - - - - - 1029,8 18 56 0,0
10.12.2019 09:00:00 6,7 6,3 2,2 10,3 12,2 9 5 14 7 SSE 1030,1 13 7 0,0
10.12.2019 08:00:00 7,1 6,5 3,4 10,4 12,2 9 5 13 7 SSE 1030,1 14 0 0,0
10.12.2019 07:00:00 6,8 6,5 2,3 10,5 12,2 6 3 16 8 S 1030,4 12 0 0,0
10.12.2019 06:00:00 7,3 6,6 3,8 10,5 12,2 7 4 11 6 SSE 1030,6 14 0 0,0
10.12.2019 05:00:00 8,2 6,8 5,4 10,6 12,2 7 4 11 6 S 1031,1 11 0 0,0
10.12.2019 04:00:00 10,9 7,4 6,6 10,6 12,2 4 2 12 6 SSE 1031,8 10 0 0,0
10.12.2019 03:00:00 11,1 7,4 9,1 10,7 12,2 4 2 15 8 WSW 1031,9 9 0 0,0
10.12.2019 02:00:00 11,7 7,2 10,2 10,7 12,2 11 6 21 11 NW 1031,9 13 0 0,0
10.12.2019 01:00:00 11,7 7,0 10,2 10,8 12,2 9 5 21 11 NW 1032,3 15 0 0,0
10.12.2019 00:00:00 11,5 7,0 10,1 10,8 12,2 11 6 32 17 NNW 1032,2 14 0 0,0
09.12.2019 23:00:00 12,2 7,3 11,0 10,8 12,2 21 11 39 21 NW 1032,2 15 0 0,0
09.12.2019 22:00:00 11,7 8,5 10,9 10,8 12,2 14 7 34 18 NW 1032,1 11 0 0,0
09.12.2019 21:00:00 12,0 7,3 10,8 10,8 12,2 18 10 40 22 NW 1031,9 14 0 0,0
09.12.2019 20:00:00 12,3 8,2 10,0 10,9 12,2 23 13 46 25 NW 1031,3 12 0 0,0
09.12.2019 19:00:00 12,0 9,0 10,6 10,9 12,2 28 15 54 29 W 1030,7 11 0 0,0
09.12.2019 18:00:00 11,7 9,8 9,5 10,9 12,2 30 16 64 35 W 1030,0 10 0 0,4
09.12.2019 17:00:00 12,3 8,9 10,3 10,9 12,2 35 19 54 29 WNW 1029,3 12 0 0,0
09.12.2019 16:00:00 11,9 9,6 9,4 10,9 12,2 34 18 69 37 WNW 1029,1 13 5 0,2
09.12.2019 15:00:00 11,4 9,5 9,9 10,8 12,2 34 18 69 38 WNW 1028,5 9 4 0,4
09.12.2019 14:00:00 12,2 8,3 10,2 10,8 12,2 39 21 79 43 NW 1028,4 4,9 6 0,2
09.12.2019 13:00:00 12,9 8,6 9,9 10,8 12,2 37 20 72 39 WNW 1028,0 3,7 6 1,4
09.12.2019 12:00:00 13,0 8,7 11,0 10,8 12,2 40 22 76 41 WNW 1028,1 8 14 0,0
09.12.2019 11:00:00 11,9 9,3 10,1 10,7 12,1 42 23 79 43 W 1027,6 9 0 0,0
09.12.2019 10:00:00 12,5 8,4 10,1 10,7 12,1 47 25 71 39 WNW 1026,5 8 0 0,2
09.12.2019 09:00:00 13,0 9,3 10,6 10,7 12,2 44 24 75 40 WNW 1025,8 9 0 0,6
09.12.2019 08:00:00 12,5 9,0 10,3 10,7 12,2 47 26 77 41 WNW 1025,3 11 0 3,0
09.12.2019 07:00:00 12,8 8,9 11,1 10,7 12,1 49 27 80 43 W 1024,6 11 0 0,0
09.12.2019 06:00:00 13,2 9,1 11,9 10,7 12,1 48 26 78 42 W 1024,3 13 0 0,0
09.12.2019 05:00:00 13,1 10,1 12,0 10,7 12,2 36 19 65 35 W 1024,2 10 0 0,0
09.12.2019 04:00:00 12,8 8,7 10,8 10,6 12,1 44 24 65 35 W 1024,7 13 0 0,8
09.12.2019 03:00:00 13,1 8,8 11,4 10,6 12,1 35 19 61 33 W 1024,4 13 0 0,0
09.12.2019 02:00:00 13,2 8,7 12,5 10,6 12,1 35 19 62 33 W 1024,8 16 0 0,0
09.12.2019 01:00:00 12,9 9,0 12,2 10,6 12,1 34 19 59 32 W 1025,1 14 0 0,0
09.12.2019 00:00:00 12,8 9,1 11,5 10,6 12,2 29 16 60 33 W 1024,9 14 0 0,0
08.12.2019 23:00:00 12,9 8,8 11,9 10,6 12,1 37 20 54 29 W 1025,2 14 0 0,0
08.12.2019 22:00:00 13,1 9,2 11,6 10,6 12,2 31 17 51 28 W 1025,4 13 0 0,0
08.12.2019 21:00:00 12,7 9,3 11,6 10,6 12,1 24 13 51 28 W 1025,0 12 0 0,0
08.12.2019 20:00:00 13,0 9,6 11,8 10,5 12,1 28 15 45 24 W 1025,0 12 0 0,0
08.12.2019 19:00:00 12,7 9,7 11,9 10,5 12,2 28 15 49 26 W 1024,2 14 0 0,0
08.12.2019 18:00:00 12,9 12,7 12,6 10,4 12,2 26 14 46 25 WNW 1023,0 13 0 0,6
08.12.2019 17:00:00 12,7 12,7 12,4 10,3 12,2 18 10 38 21 WSW 1021,6 2,6 0 0,2
08.12.2019 16:00:00 12,7 12,5 12,3 10,1 12,1 16 9 32 18 WSW 1020,9 2,7 0 1,6
08.12.2019 15:00:00 12,7 12,1 12,2 10,0 12,2 12 6 30 16 SW 1020,4 8 0 1,2
08.12.2019 14:00:00 13,2 12,1 12,3 9,9 12,1 16 9 29 16 WSW 1020,7 5 0 1,4
08.12.2019 13:00:00 13,7 11,2 12,2 9,8 12,2 8 5 15 8 SW 1020,9 16 0 0,4
08.12.2019 12:00:00 14,2 9,8 14,0 9,7 12,2 5 3 13 7 SSW 1021,1 10 0 0,0
08.12.2019 11:00:00 14,1 9,5 13,0 9,6 12,2 9 5 20 11 SW 1021,5 52 0 0,0
08.12.2019 10:00:00 12,8 8,9 12,2 9,6 12,1 7 4 17 9 SW 1021,1 59 25 0,0
08.12.2019 09:00:00 11,0 7,9 7,1 9,7 12,2 9 5 16 9 S 1020,7 54 9 0,0
08.12.2019 08:00:00 9,5 7,3 6,0 9,7 12,1 6 3 13 7 S 1021,2 60 0 0,0
08.12.2019 07:00:00 8,9 7,3 3,6 9,8 12,1 5 3 11 6 SW 1021,2 55 0 0,0
08.12.2019 06:00:00 7,3 6,2 4,1 9,9 12,1 9 5 16 9 SSE 1021,1 42 0 0,0
08.12.2019 05:00:00 8,5 7,9 4,8 10,0 12,1 10 6 16 9 SSE 1021,6 33 0 0,0
08.12.2019 04:00:00 9,1 8,2 5,7 10,0 12,1 7 4 11 6 S 1022,2 36 0 0,0
08.12.2019 03:00:00 7,9 7,5 3,6 10,1 12,1 7 4 13 7 SSE 1022,7 18 0 0,0
08.12.2019 02:00:00 8,0 7,2 4,2 10,3 12,1 11 6 14 8 SSE 1023,0 17 0 0,0
08.12.2019 01:00:00 8,7 7,5 4,4 10,4 12,1 6 3 10 5 S 1023,4 20 0 0,0
08.12.2019 00:00:00 9,3 8,4 4,7 10,4 12,1 8 4 11 6 SSE 1023,8 21 0 0,0
07.12.2019 23:00:00 10,0 8,6 5,4 10,5 12,2 8 4 11 6 SSE 1023,7 22 0 0,0
07.12.2019 22:00:00 10,5 8,4 7,2 10,5 12,1 7 4 10 5 SSE 1023,9 20 0 0,0
07.12.2019 21:00:00 11,1 8,7 8,3 10,5 12,1 5 3 10 5 S 1024,0 17 0 0,0
07.12.2019 20:00:00 12,1 9,1 10,8 10,5 12,1 5 3 8 5 S 1024,1 24 0 0,0
07.12.2019 19:00:00 13,1 9,3 11,3 10,4 12,2 6 4 8 4 SSE 1024,0 28 0 0,0
07.12.2019 18:00:00 13,0 9,1 9,9 10,4 12,2 5 3 10 6 WNW 1023,7 20 0 0,0
07.12.2019 17:00:00 13,3 9,2 11,5 10,2 12,1 5 3 13 7 W 1023,1 41 4 0,0
07.12.2019 16:00:00 14,0 8,8 14,4 10,1 12,1 10 5 14 8 WNW 1023,0 37 0 0,0
07.12.2019 15:00:00 14,5 8,7 15,2 9,9 12,1 10 5 16 9 W 1022,8 29 0 0,0
07.12.2019 14:00:00 14,8 9,4 16,0 9,7 12,1 8 5 18 10 W 1023,2 42 0 0,0
07.12.2019 13:00:00 14,6 9,6 16,0 9,6 12,1 6 4 15 8 SSW 1023,8 52 14 0,0
07.12.2019 12:00:00 14,1 10,3 11,6 9,5 12,2 5 3 9 5 SW 1024,3 39 26 0,0
07.12.2019 11:00:00 10,8 8,6 10,8 9,4 12,2 4 2 9 5 S 1024,9 34 0 0,0
07.12.2019 10:00:00 10,2 8,1 10,6 9,5 12,2 5 3 9 5 SSE 1024,6 36 48 0,0
07.12.2019 09:00:00 8,1 7,2 4,5 9,5 12,2 7 4 13 7 SSE 1024,4 29 10 0,0
07.12.2019 08:00:00 7,5 6,4 5,2 9,6 12,2 8 4 9 5 SSE 1024,0 23 0 0,0
07.12.2019 07:00:00 8,0 6,6 5,3 9,7 12,2 7 4 9 5 S 1023,4 29 0 0,0
07.12.2019 06:00:00 8,4 7,2 5,6 9,7 12,2 8 4 11 6 SSE 1023,1 22 0 0,0
07.12.2019 05:00:00 9,9 8,2 5,5 9,8 12,2 6 4 9 5 SW 1023,0 14 0 0,0
07.12.2019 04:00:00 9,9 8,5 5,8 9,8 12,2 5 3 13 7 WSW 1023,4 12 0 0,0
07.12.2019 03:00:00 9,9 8,3 7,7 9,8 12,2 8 4 18 10 WSW 1023,2 24 0 0,0
07.12.2019 02:00:00 10,6 9,0 9,5 9,8 12,2 9 5 15 8 SW 1023,2 27 0 0,0
07.12.2019 01:00:00 11,1 9,4 10,5 9,7 12,2 9 5 18 10 SW 1023,7 26 0 0,0
07.12.2019 00:00:00 11,0 9,7 10,4 9,7 12,2 8 4 14 8 WSW 1024,1 14 0 0,0
06.12.2019 23:00:00 10,9 10,0 10,0 9,7 12,2 7 4 15 8 WSW 1024,0 12 0 0,0
06.12.2019 22:00:00 10,8 10,2 9,3 9,7 12,2 10 5 20 11 SW 1022,9 9 0 0,0
06.12.2019 21:00:00 10,4 9,5 7,8 9,8 12,2 13 7 18 10 W 1022,8 9 0 0,0
06.12.2019 20:00:00 9,7 9,2 7,5 9,8 12,2 9 5 14 8 WSW 1022,3 7 0 0,0
06.12.2019 19:00:00 10,6 10,1 7,4 9,7 12,2 9 5 12 6 W 1022,0 7 0 0,0
06.12.2019 18:00:00 11,3 9,7 8,1 9,7 12,2 8 4 10 6 W 1021,7 3,9 2 0,0
06.12.2019 17:00:00 13,2 7,8 10,8 9,6 12,2 3 1 9 5 NW 1021,3 29 0 0,0
06.12.2019 16:00:00 14,0 7,7 14,5 9,4 12,2 4 2 11 6 N 1020,9 32 34 0,0
06.12.2019 15:00:00 14,6 9,8 16,4 9,1 12,2 6 4 16 8 N 1021,2 20 60 0,0
06.12.2019 14:00:00 12,9 9,3 15,3 8,9 12,3 11 6 20 11 NW 1021,8 20 60 0,0
06.12.2019 13:00:00 14,3 9,5 13,4 8,8 12,3 4 2 16 8 S 1022,3 41 45 0,0
06.12.2019 12:00:00 12,7 9,0 12,4 8,7 12,2 8 4 19 10 SE 1023,2 20 29 0,0
06.12.2019 11:00:00 10,7 8,3 10,4 8,7 12,3 10 5 20 11 SE 1023,8 28 60 0,0
06.12.2019 10:00:00 7,8 6,7 5,2 8,7 12,3 8 5 20 11 SE 1024,1 19 60 0,0
06.12.2019 09:00:00 5,0 4,9 1,8 8,8 12,3 11 6 18 10 SSE 1023,8 14 11 0,0
06.12.2019 08:00:00 3,8 3,7 1,9 8,9 12,3 10 5 18 10 SSE 1024,3 11 0 0,0
06.12.2019 07:00:00 4,6 4,5 1,8 9,0 12,3 10 5 15 8 SSE 1024,2 8 0 0,0
06.12.2019 06:00:00 5,1 4,7 2,3 9,1 12,3 8 4 10 5 SSE 1023,9 13 0 0,0
06.12.2019 05:00:00 5,9 5,5 2,5 9,1 12,3 4 2 9 5 S 1024,2 12 0 0,0
06.12.2019 04:00:00 6,2 5,8 4,3 9,2 12,3 6 4 10 5 S 1024,4 15 0 0,0
06.12.2019 03:00:00 6,4 6,1 4,4 9,3 12,3 8 4 13 7 S 1024,5 9 0 0,0
06.12.2019 02:00:00 6,6 6,5 3,3 9,4 12,3 7 4 11 6 SSW 1024,4 8 0 0,0
06.12.2019 01:00:00 6,8 6,7 3,6 9,5 12,3 6 4 9 5 SSW 1024,3 8 0 0,0
06.12.2019 00:00:00 7,1 7,0 4,5 9,5 12,3 6 3 13 7 SSW 1024,6 8 0 0,0
05.12.2019 23:00:00 7,6 7,6 4,9 9,6 12,3 5 3 10 5 SSW 1025,0 4,3 0 0,0
05.12.2019 22:00:00 7,9 7,9 5,1 9,7 12,3 6 4 11 6 SW 1024,9 4,4 0 0,0
05.12.2019 21:00:00 8,2 8,1 5,0 9,7 12,3 6 4 9 5 SW 1025,2 3,0 0 0,0
05.12.2019 20:00:00 9,1 9,0 4,1 9,8 12,3 6 3 8 4 SW 1024,8 4,2 0 0,0
05.12.2019 19:00:00 9,6 9,1 3,6 9,8 12,4 5 3 10 5 WNW 1024,4 4,5 0 0,0
05.12.2019 18:00:00 10,4 9,5 6,2 9,8 12,4 3 2 8 5 W 1023,8 9 2 0,0
05.12.2019 17:00:00 11,8 9,7 11,4 9,6 12,4 5 3 14 8 W 1023,3 20 17 0,0
05.12.2019 16:00:00 12,1 10,2 12,2 9,5 12,4 11 6 18 10 W 1022,9 20 40 0,0
05.12.2019 15:00:00 12,7 9,9 15,4 9,3 12,4 11 6 19 10 W 1022,9 20 60 0,0
05.12.2019 14:00:00 12,5 9,0 15,7 9,1 12,4 10 6 18 10 WNW 1023,2 8 60 0,0
05.12.2019 13:00:00 12,5 8,8 12,1 9,0 12,5 6 3 13 7 WNW 1023,6 19 54 0,0
05.12.2019 12:00:00 10,9 7,9 12,1 8,8 12,5 4 2 9 5 WSW 1024,0 20 4 0,0
05.12.2019 11:00:00 10,7 7,8 11,2 8,8 12,5 6 3 12 7 SW 1023,8 19 60 0,0
05.12.2019 10:00:00 8,4 7,2 6,4 8,8 12,5 4 2 9 5 S 1023,4 11 48 0,0
05.12.2019 09:00:00 6,6 6,2 6,0 8,7 12,5 7 4 9 5 SSE 1022,9 7 0 0,0

tt = temperature
td = dewpoint
tt 5cm = temperature 5cm
tt -20cm = temperature -20cm
tt -100cm = temperature -100cm
ff = wind speed
fx = gusts
dd = wind direction
ppp = reduced air pressure
vv = visibility
sd = sunshine duration
rr = precipitation

Next stations